Content
SEND FEEDBACK

Daily
Averages
Monthly
Summary
United States of America

CORPUS CHRISTI - AIRPORT, TEXAS


Home > North America > United States > Texas
Elevation: 50 feet     Latitude: 27 46N     Longitude: 097 27W

WEATHER
 
SELECT A DAY
Number of Records: 210,108;   Date Range: 1/1/95 - 11/26/14
 
SHARE

PRINT THIS DATA

[ ← Previous Day ]
WEATHER ALMANAC - FEBRUARY 13, 2013
[ Next Day → ]
[ °C ]   °F
Weather ElementAverageHighLow
Temperature57.9 °F66.9 °F (3:51 pm)48.9 °F (10:51 pm)
Dewpoint40 °F55.9 °F (1:51 am)35.1 °F (4:51 pm)
Humidity53.3 %83 % (1:51 am)32 % (3:51 pm)
Barometer30.08 in30.18 in (10:51 am)29.99 in (1:51 am)
Wind Speed10.7 mph19.6 mph (3:51 am)
Wind Gust28.8 mph (3:51 am)
Weather ElementAverage
Visibility10 mi
Wind DirectionSE (138.3 °)

Weather ElementTotal
Precipitation---
Heating Degree Days7.1 (Base 65)
Growing Degree Days7.9 (Base 50)
Averaged from 23 records on February 13, 2013
WEATHER CONDITIONS BREAKOUT
WIND DIRECTION BREAKOUT
WEATHER BY HOUR - FEBRUARY 13, 2013
[ °C ]   °F
Local TimeTemperatureDewpointHumidityBarometerVisibilityWind DirectionWind SpeedGust SpeedPrecipitationEventsConditions
1:51 AM61.0 °F55.9 °F83 %29.99 in10.0 miNNW (340°)6.9 mphPartly Cloudy
2:51 AM62.1 °F46.0 °F56 %30.02 in10.0 miNorth (360°)15.0 mphPartly Cloudy
3:51 AM60.1 °F52.0 °F75 %30.03 in10.0 miNorth (10°)19.6 mph28.8 mphPartly Cloudy
4:51 AM60.1 °F50.0 °F69 %30.04 in10.0 miNorth (10°)16.1 mph25.3 mphScattered Clouds
5:51 AM55.9 °F39.9 °F55 %30.07 in10.0 miNorth (360°)19.6 mph0.00 inMostly Cloudy
6:51 AM54.0 °F39.9 °F59 %30.09 in10.0 miNorth (360°)17.3 mphMostly Cloudy
7:51 AM53.1 °F39.0 °F59 %30.11 in10.0 miNorth (10°)16.1 mphScattered Clouds
8:51 AM53.1 °F37.0 °F55 %30.15 in10.0 miNorth (360°)17.3 mphScattered Clouds
9:51 AM54.0 °F37.0 °F53 %30.17 in10.0 miNorth (360°)15.0 mphMostly Cloudy
10:51 AM57.0 °F37.0 °F47 %30.18 in10.0 miNorth (10°)12.7 mphMostly Cloudy
11:51 AM57.0 °F37.0 °F47 %30.16 in10.0 miNorth (10°)10.4 mphMostly Cloudy
12:51 PM61.0 °F36.0 °F39 %30.14 in10.0 miNNE (20°)10.4 mphScattered Clouds
1:51 PM64.0 °F37.0 °F37 %30.09 in10.0 miNNE (20°)10.4 mphPartly Cloudy
2:51 PM64.9 °F36.0 °F34 %30.06 in10.0 miNE (50°)4.6 mphPartly Cloudy
3:51 PM66.9 °F36.0 °F32 %30.04 in10.0 miNNE (20°)11.5 mphPartly Cloudy
4:51 PM66.0 °F35.1 °F32 %30.04 in10.0 miNNE (30°)8.1 mphPartly Cloudy
5:51 PM64.0 °F35.1 °F34 %30.03 in10.0 miNNE (30°)9.2 mphPartly Cloudy
6:51 PM57.9 °F37.0 °F46 %30.04 in10.0 miNE (50°)6.9 mphPartly Cloudy
7:51 PM57.0 °F37.9 °F49 %30.06 in10.0 miENE (60°)4.6 mphClear
8:51 PM53.1 °F39.0 °F59 %30.08 in10.0 miSouth (190°)3.5 mphClear
9:51 PM51.1 °F39.0 °F63 %30.10 in10.0 miSouth (180°)4.6 mphPartly Cloudy
10:51 PM48.9 °F39.9 °F71 %30.10 in10.0 miNNW (340°)5.8 mphPartly Cloudy
11:51 PM50.0 °F41.0 °F71 %30.11 in10.0 miCalmPartly Cloudy
Hourly data recorded from KCRP, located miles away from Corpus Christi - Airport, Texas







STORIES FROM OUR PARTNERS